Orbital Elements at Epoch 2459000.5 (2020-May-31.0) TDB
Reference: JPL 9 (heliocentric ecliptic J2000)
Element | Value | Uncertainty (1-sigma) | Units |
e | .2275335503566137 | 4.9859e-08 | |
a | 2.383916158998938 | 1.4659e-08 | au |
q | 1.841495251589408 | 1.1648e-07 | au |
i | 3.157236553755811 | 5.9981e-06 | deg |
node | 239.9607192532176 | 0.00012554 | deg |
peri | 148.7755367655655 | 0.00012705 | deg |
M | 115.2381973349529 | 2.1781e-05 | deg |
tp | 2458570.143022913137 (2019-Mar-27.64302291) | 7.857e-05 | TDB |
period | 1344.419778634278 3.68 | 1.2401e-05 3.395e-08 | d yr |
n | .2677735077400483 | 2.4699e-09 | deg/d |
Q | 2.926337066408468 | 1.7995e-08 | au |
|
| | Orbit Determination Parameters
Additional Information
|